Latest Weather Observations for Laverton

IDV60901

Issued at 7:11 am EDT Friday 6 March 2015 (issued every 10 minutes, with the page automatically refreshed every 10 minutes)

About weather observations | Map of Melbourne area stations | Latest observations for Melbourne area | Other Formats
Station Details ID: 087031 Name: LAVERTON RAAF Lat: -37.86 Lon: 144.76 Height: 20.1 m
Data from the previous 72 hours. | See also: Recent months at Laverton
Date/Time
EDT
Tmp

°C
App
Tmp
°C
Dew
Point
°C
Rel
Hum
%
Delta-T

°C
Wind Press
QNH
hPa
Press
MSL
hPa
Rain
since
9 am
mm
Dir
 
Spd
km/h
Gust
km/h
Spd
kts
Gust
kts
06/07:00am 15.0 9.5 9.1 68 3.0 W 28 39 15 21 1010.1 1010.1 0.0
06/06:48am 15.0 9.4 8.9 67 3.1 W 28 46 15 25 1009.9 1009.9 0.0
06/06:30am 15.0 9.0 8.7 66 3.2 W 30 46 16 25 1009.9 1009.9 0.0
06/05:30am 14.6 8.5 8.1 65 3.3 W 30 39 16 21 1010.4 1010.4 0.0
06/05:00am 14.3 8.6 8.3 67 3.0 W 28 39 15 21 1010.4 1010.4 0.0
06/04:30am 14.3 8.1 8.0 66 3.1 W 30 46 16 25 1011.0 1011.0 0.0
06/04:28am 14.3 8.5 8.0 66 3.1 W 28 46 15 25 1011.0 1011.0 0.0
06/04:00am 14.2 9.5 7.7 65 3.2 W 22 32 12 17 1011.5 1011.5 0.0
06/03:34am 14.5 8.7 8.0 65 3.2 W 28 46 15 25 1012.0 1011.9 0.0
06/03:30am 14.5 9.9 8.0 65 3.2 W 22 39 12 21 1012.0 1011.9 0.0
06/03:00am 14.3 9.6 7.6 64 3.3 W 22 35 12 19 1012.4 1012.3 0.0
06/02:30am 13.9 9.7 7.4 65 3.2 WNW 19 28 10 15 1012.9 1012.8 0.0
06/02:00am 13.6 9.1 6.9 64 3.2 WNW 20 30 11 16 1013.3 1013.2 0.0
06/01:30am 13.5 8.9 6.4 62 3.4 WNW 20 32 11 17 1013.6 1013.5 0.0
06/01:00am 13.8 8.8 6.4 61 3.6 WNW 22 30 12 16 1013.6 1013.5 0.0
06/12:30am 13.9 8.4 6.0 59 3.8 WNW 24 32 13 17 1013.9 1013.8 0.0
 
Date/Time
EDT
Tmp

°C
App
Tmp
°C
Dew
Point
°C
Rel
Hum
%
Delta-T

°C
Wind Press
QNH
hPa
Press
MSL
hPa
Rain
since
9 am
mm
Dir
 
Spd
km/h
Gust
km/h
Spd
kts
Gust
kts
05/11:30pm 14.3 9.6 5.9 57 4.0 W 20 28 11 15 1014.5 1014.4 0.0
05/11:00pm 14.3 8.8 5.9 57 4.0 W 24 35 13 19 1014.7 1014.6 0.0
05/10:30pm 14.4 9.9 6.0 57 4.0 W 19 30 10 16 1015.1 1015.0 0.0
05/10:00pm 14.7 9.6 6.0 56 4.2 W 22 32 12 17 1015.3 1015.2 0.0
05/09:30pm 15.1 10.0 5.9 54 4.4 W 22 35 12 19 1015.4 1015.3 0.0
05/08:30pm 15.7 9.8 4.1 46 5.4 WSW 24 33 13 18 1015.2 1015.1 0.0
05/08:00pm 16.1 9.7 5.4 49 5.1 WSW 28 39 15 21 1015.3 1015.2 0.0
05/07:30pm 16.9 10.6 3.9 42 6.1 WSW 26 33 14 18 1015.3 1015.2 0.0
05/07:00pm 17.3 10.1 2.9 38 6.6 WSW 30 41 16 22 1015.4 1015.3 0.0
05/06:31pm 18.2 11.1 3.7 38 6.8 WSW 30 50 16 27 1015.3 1015.2 0.0
05/06:30pm 18.4 11.7 3.8 38 6.9 WSW 28 43 15 23 1015.3 1015.2 0.0
05/05:53pm 18.9 12.1 3.1 35 7.4 WSW 28 46 15 25 1015.5 1015.4 0.0
05/05:30pm 18.2 13.6 6.7 47 5.7 S 20 28 11 15 1015.5 1015.4 0.0
05/05:00pm 18.3 14.1 7.4 49 5.5 SSW 19 28 10 15 1015.7 1015.6 0.0
05/04:30pm 18.6 14.0 6.4 45 6.1 S 20 32 11 17 1015.9 1015.8 0.0
05/04:00pm 19.0 14.6 6.5 44 6.2 S 19 32 10 17 1016.0 1015.9 0.0
05/03:30pm 18.6 13.5 6.1 44 6.2 S 22 32 12 17 1016.4 1016.3 0.0
05/03:00pm 18.8 14.0 5.6 42 6.5 S 20 28 11 15 1016.7 1016.6 0.0
05/02:30pm 18.2 13.4 5.8 44 6.1 S 20 32 11 17 1016.7 1016.6 0.0
05/02:00pm 18.2 12.7 6.1 45 5.9 SW 24 39 13 21 1017.1 1017.0 0.0
05/01:30pm 17.8 12.3 6.0 46 5.8 SSW 24 39 13 21 1017.5 1017.4 0.0
05/01:00pm 17.1 10.4 5.4 46 5.6 S 30 43 16 23 1018.0 1017.9 0.0
05/12:30pm 17.8 10.3 4.7 42 6.3 SSW 33 46 18 25 1018.0 1017.9 0.0
05/12:00pm 17.1 9.9 5.1 45 5.7 SSW 32 44 17 24 1018.1 1018.0 0.0
05/11:30am 16.7 9.6 5.3 47 5.5 SSW 32 43 17 23 1018.1 1018.0 0.0
05/11:00am 15.9 7.7 4.9 48 5.2 SW 37 50 20 27 1018.2 1018.1 0.0
05/10:30am 15.7 7.0 4.1 46 5.4 SW 39 57 21 31 1017.9 1017.8 0.0
05/10:03am 15.3 7.1 4.7 49 5.0 SW 37 56 20 30 1017.5 1017.4 0.0
05/10:00am 15.5 8.1 4.8 49 5.0 SW 33 50 18 27 1017.4 1017.3 0.0
05/09:40am 14.9 6.9 4.0 48 5.0 SW 35 54 19 29 1017.0 1016.9 0.0
05/09:30am 14.8 7.6 5.1 52 4.6 SW 32 43 17 23 1016.9 1016.8 0.0
05/09:00am 13.7 7.3 5.1 56 4.0 SW 28 41 15 22 1016.6 1016.5 0.4
05/08:30am 12.6 7.3 4.8 59 3.6 WSW 22 32 12 17 1016.3 1016.2 0.4
05/08:00am 11.5 6.5 4.7 63 3.1 SW 20 30 11 16 1015.7 1015.6 0.4
05/07:30am 11.2 6.1 4.2 62 3.1 WSW 20 35 11 19 1015.1 1015.0 0.4
05/07:00am 10.9 5.9 4.4 64 2.9 SW 20 28 11 15 1014.9 1014.8 0.2
05/06:30am 11.4 6.6 4.8 64 3.0 SW 19 26 10 14 1014.8 1014.7 0.2
05/06:00am 11.8 6.1 5.0 63 3.1 WSW 24 35 13 19 1014.6 1014.5 0.2
05/05:30am 12.1 5.8 5.5 64 3.1 WSW 28 43 15 23 1013.9 1013.8 0.2
05/05:00am 12.2 6.4 6.3 67 2.8 WSW 26 41 14 22 1013.5 1013.4 0.2
05/04:30am 12.7 5.8 6.5 66 3.0 SW 32 50 17 27 1013.0 1012.9 0.2
05/04:00am 13.6 5.3 7.6 67 2.9 SW 41 61 22 33 1012.3 1012.2 0.2
05/03:32am 14.2 6.0 9.6 74 2.4 WSW 43 63 23 34 1011.5 1011.5 0.2
05/03:30am 14.3 6.1 9.7 74 2.4 WSW 43 63 23 34 1011.4 1011.4 0.2
05/03:10am 14.8 9.5 11.2 79 1.9 WSW 30 56 16 30 1010.9 1010.9 0.2
05/03:00am 14.9 9.7 11.7 81 1.7 WSW 30 43 16 23 1010.6 1010.6 0.2
05/02:44am 14.8 9.4 12.1 84 1.5 WSW 32 50 17 27 1010.4 1010.4 0.2
05/02:30am 14.6 7.0 11.7 83 1.6 WSW 43 65 23 35 1010.3 1010.3 0.2
05/02:21am 15.9 10.8 11.9 77 2.2 WSW 30 52 16 28 1010.2 1010.2 0.0
05/02:00am 16.9 10.7 11.4 70 3.0 W 35 57 19 31 1009.9 1009.9 0.0
05/01:30am 17.9 12.0 10.5 62 4.0 W 32 52 17 28 1009.7 1009.7 0.0
05/01:05am 18.1 11.9 9.5 57 4.5 W 32 52 17 28 1009.4 1009.4 0.0
05/01:00am 18.2 12.0 9.3 56 4.7 W 32 43 17 23 1009.4 1009.4 0.0
05/12:30am 18.4 13.2 8.9 54 4.9 WNW 26 39 14 21 1009.3 1009.3 0.0
05/12:01am 19.2 12.4 9.4 53 5.2 W 35 54 19 29 1009.6 1009.6 0.0
05/12:00am 19.2 12.1 9.4 53 5.2 W 37 54 20 29 1009.6 1009.6 0.0
 
Date/Time
EDT
Tmp

°C
App
Tmp
°C
Dew
Point
°C
Rel
Hum
%
Delta-T

°C
Wind Press
QNH
hPa
Press
MSL
hPa
Rain
since
9 am
mm
Dir
 
Spd
km/h
Gust
km/h
Spd
kts
Gust
kts
04/11:43pm 19.4 14.7 9.3 52 5.3 W 24 52 13 28 1009.4 1009.4 0.0
04/11:30pm 18.3 15.5 9.9 58 4.5 WNW 15 24 8 13 1009.4 1009.4 0.0
04/11:00pm 19.2 15.0 9.7 54 5.1 W 22 35 12 19 1009.5 1009.5 0.0
04/10:30pm 19.8 14.5 9.7 52 5.4 WSW 28 44 15 24 1009.6 1009.6 0.0
04/10:27pm 19.9 14.6 9.8 52 5.4 WSW 28 44 15 24 1009.6 1009.6 0.0
04/10:00pm 19.8 16.2 9.7 52 5.4 W 19 26 10 14 1009.6 1009.6 0.0
04/09:30pm 20.3 16.3 9.2 49 5.9 W 20 33 11 18 1009.6 1009.6 0.0
04/09:00pm 20.8 16.4 9.1 47 6.2 W 22 32 12 17 1009.4 1009.4 0.0
04/08:30pm 21.3 17.3 9.2 46 6.4 W 20 26 11 14 1009.1 1009.1 0.0
04/08:00pm 21.8 17.1 9.3 45 6.7 WSW 24 35 13 19 1009.2 1009.2 0.0
04/07:30pm 22.6 17.8 9.0 42 7.3 WSW 24 33 13 18 1009.3 1009.3 0.0
04/07:00pm 23.5 18.8 9.1 40 7.8 WSW 24 32 13 17 1009.5 1009.5 0.0
04/06:30pm 24.1 19.3 8.9 38 8.2 W 24 37 13 20 1009.6 1009.6 0.0
04/06:00pm 24.3 19.8 8.7 37 8.4 W 22 32 12 17 1009.7 1009.7 0.0
04/05:30pm 24.5 20.6 9.3 38 8.3 WSW 20 32 11 17 1009.9 1009.9 0.0
04/05:00pm 23.8 19.8 9.0 39 8.0 WSW 20 41 11 22 1010.2 1010.2 0.0
04/04:30pm 24.1 20.3 8.9 38 8.2 W 19 32 10 17 1010.5 1010.5 0.0
04/04:00pm 24.3 19.8 8.7 37 8.4 WSW 22 32 12 17 1010.9 1010.9 0.0
04/03:30pm 23.4 18.6 9.0 40 7.7 W 24 37 13 20 1011.4 1011.4 0.0
04/03:00pm 23.7 19.9 8.9 39 8.0 WNW 19 33 10 18 1012.0 1011.9 0.0
04/02:30pm 23.1 19.4 9.5 42 7.4 WNW 19 30 10 16 1012.5 1012.4 0.0
04/02:00pm 22.2 19.1 9.0 43 7.0 WNW 15 26 8 14 1013.0 1012.9 0.0
04/01:30pm 21.5 17.6 9.4 46 6.5 W 20 30 11 16 1013.5 1013.4 0.0
04/01:00pm 21.3 17.0 9.2 46 6.4 WNW 22 37 12 20 1013.9 1013.8 0.0
04/12:30pm 20.5 16.3 9.7 50 5.8 W 22 28 12 15 1014.5 1014.4 0.0
04/12:00pm 20.1 16.7 9.1 49 5.8 WSW 17 30 9 16 1015.2 1015.1 0.0
04/11:30am 18.8 14.8 9.0 53 5.1 WSW 20 30 11 16 1015.4 1015.3 0.0
04/11:00am 18.7 15.5 9.8 56 4.7 WSW 17 26 9 14 1015.6 1015.5 0.0
04/10:30am 17.9 14.3 10.0 60 4.2 WSW 19 24 10 13 1015.7 1015.6 0.0
04/10:00am 17.4 14.0 10.5 64 3.7 WSW 19 26 10 14 1015.6 1015.5 0.0
04/09:30am 16.9 13.9 10.5 66 3.4 W 17 22 9 12 1015.6 1015.5 0.0
04/09:00am 16.3 13.2 10.4 68 3.1 WNW 17 22 9 12 1015.8 1015.7 0.0
04/08:30am 15.0 12.9 11.2 78 2.0 WNW 13 17 7 9 1015.5 1015.4 0.0
04/08:00am 13.3 11.5 11.0 86 1.2 WNW 11 13 6 7 1015.5 1015.4 0.0
04/07:30am 13.1 11.2 10.6 85 1.3 W 11 15 6 8 1015.1 1015.0 0.0
04/07:00am 13.2 11.8 10.9 86 1.2 W 9 13 5 7 1014.9 1014.8 0.0
04/06:30am 13.5 12.1 11.0 85 1.3 W 9 11 5 6 1014.8 1014.7 0.0
04/06:00am 13.9 13.0 11.2 84 1.4 WSW 7 9 4 5 1014.8 1014.7 0.0
04/05:30am 13.7 12.7 11.0 84 1.4 W 7 11 4 6 1014.9 1014.8 0.0
04/05:00am 13.5 12.0 10.7 83 1.5 SW 9 11 5 6 1014.9 1014.8 0.0
04/04:30am 14.0 11.0 10.8 81 1.7 SW 17 20 9 11 1014.9 1014.8 0.0
04/04:00am 14.5 12.4 11.1 80 1.8 WSW 13 19 7 10 1014.9 1014.8 0.0
04/03:30am 14.7 12.3 11.3 80 1.8 WSW 15 19 8 10 1014.9 1014.8 0.0
04/03:00am 14.5 12.4 11.3 81 1.7 WSW 13 17 7 9 1015.3 1015.2 0.0
04/02:30am 14.6 12.6 11.6 82 1.6 W 13 19 7 10 1015.8 1015.7 0.0
04/02:00am 14.6 13.0 11.6 82 1.6 W 11 15 6 8 1015.9 1015.8 0.0
04/01:30am 14.4 13.2 11.7 84 1.5 W 9 13 5 7 1016.0 1015.9 0.0
04/01:00am 13.4 12.1 11.1 86 1.2 W 9 11 5 6 1016.1 1016.0 0.0
04/12:30am 13.7 12.7 10.9 83 1.5 W 7 9 4 5 1016.4 1016.3 0.0
04/12:00am 15.2 14.4 11.6 79 1.9 SW 7 9 4 5 1016.6 1016.5 0.0
 
Date/Time
EDT
Tmp

°C
App
Tmp
°C
Dew
Point
°C
Rel
Hum
%
Delta-T

°C
Wind Press
QNH
hPa
Press
MSL
hPa
Rain
since
9 am
mm
Dir
 
Spd
km/h
Gust
km/h
Spd
kts
Gust
kts
03/11:30pm 15.5 14.3 11.5 77 2.2 SW 9 11 5 6 1016.8 1016.7 0.0
03/11:00pm 15.9 15.1 11.7 76 2.3 SW 7 9 4 5 1016.9 1016.8 0.0
03/10:30pm 16.3 15.2 11.9 75 2.4 SSW 9 11 5 6 1017.0 1016.9 0.0
03/10:00pm 16.6 15.5 11.9 74 2.6 S 9 13 5 7 1016.9 1016.8 0.0
03/09:30pm 17.0 15.1 11.9 72 2.8 S 13 17 7 9 1016.6 1016.5 0.0
03/09:00pm 17.4 14.7 11.7 69 3.1 S 17 24 9 13 1016.4 1016.3 0.0
03/08:30pm 17.7 14.9 11.5 67 3.4 S 17 24 9 13 1015.9 1015.8 0.0
03/08:00pm 18.3 14.8 10.9 62 4.0 S 20 28 11 15 1015.6 1015.5 0.0
03/07:30pm 19.0 15.7 10.8 59 4.4 S 19 28 10 15 1015.3 1015.2 0.0
03/07:00pm 19.8 16.3 10.8 56 4.9 SSE 20 28 11 15 1015.3 1015.2 0.0
03/06:30pm 20.7 16.8 8.7 46 6.3 SSE 19 24 10 13 1015.3 1015.2 0.0
03/06:00pm 21.1 17.0 8.0 43 6.8 SSE 19 26 10 14 1015.1 1015.0 0.0
03/05:30pm 21.0 17.3 9.3 47 6.2 SSE 19 26 10 14 1015.1 1015.0 0.0
03/05:00pm 21.3 17.9 10.5 50 5.9 SSE 19 24 10 13 1015.2 1015.1 0.0
03/04:30pm 21.6 18.3 11.0 51 5.8 SE 19 24 10 13 1015.2 1015.1 0.0
03/04:00pm 21.4 18.0 10.6 50 5.9 SE 19 26 10 14 1015.6 1015.5 0.0
03/03:30pm 21.3 18.4 11.1 52 5.6 SE 17 26 9 14 1015.9 1015.8 0.0
03/03:00pm 21.6 18.7 11.0 51 5.8 SSE 17 28 9 15 1016.2 1016.1 0.0
03/02:30pm 21.1 18.3 11.4 54 5.4 SE 17 24 9 13 1016.4 1016.3 0.0
03/02:00pm 20.8 18.7 11.2 54 5.3 S 13 24 7 13 1016.7 1016.6 0.0
03/01:30pm 20.9 18.3 12.1 57 4.9 S 17 28 9 15 1017.0 1016.9 0.0
03/01:00pm 20.5 17.9 12.0 58 4.7 SSE 17 22 9 12 1017.2 1017.1 0.0
03/12:30pm 20.0 17.2 12.7 63 4.1 SSE 19 26 10 14 1017.5 1017.4 0.0
03/12:00pm 19.3 16.8 12.3 64 3.9 SSE 17 26 9 14 1017.7 1017.6 0.0
03/11:30am 18.9 16.6 12.9 68 3.4 SSE 17 24 9 13 1017.9 1017.8 0.0
03/11:00am 18.8 16.5 13.0 69 3.3 S 17 22 9 12 1017.7 1017.6 0.0
03/10:30am 19.2 17.6 14.0 72 3.0 SSW 15 22 8 12 1017.4 1017.3 0.0
03/10:00am 18.9 16.9 14.0 73 2.8 SSW 17 24 9 13 1017.5 1017.4 0.0
03/09:30am 17.9 15.9 13.8 77 2.3 SW 17 22 9 12 1017.5 1017.4 0.0
03/09:00am 17.0 15.2 13.3 79 2.1 SW 15 19 8 10 1017.2 1017.1 0.0
03/08:30am 16.5 15.0 13.2 81 1.8 SW 13 17 7 9 1016.9 1016.8 0.0
03/08:00am 15.8 14.2 12.9 83 1.6 SW 13 19 7 10 1016.7 1016.6 0.0
03/07:30am 15.7 14.5 12.8 83 1.6 SW 11 15 6 8 1016.4 1016.3 0.0

Latest Capital City Observations: Canberra | Sydney | Melbourne | Brisbane | Adelaide | Perth | Hobart | Darwin

Other Formats:

Comma delimited format used in spreadsheet applications
http://www.bom.gov.au/fwo/IDV60901/IDV60901.94865.axf

JavaScript Object Notation format (JSON) in row-major order
http://www.bom.gov.au/fwo/IDV60901/IDV60901.94865.json